Miscellaneous Local Product
Issued by NWS Hastings, NE

Home | Current Version | Previous Version | Graphics & Text | Print | Product List | Glossary On
Versions: 1 2 3 4 5 6 7 8 9 10 11 12 13 14 15 16 17 18 19 20 21 22 23 24 25 26 27 28 29 30 31 32 33 34 35 36 37 38 39 40 41 42 43 44 45 46 47 48 49 50
164
AXUS43 KGID 252302
MISGRI

GID CWA HOURLY WEATHER ROUNDUP
NATIONAL WEATHER SERVICE HASTINGS NE
600 PM CDT WED MAY 25 2016

NOTE: "FAIR" INDICATES FEW OR NO CLOUDS BELOW 12,000 FEET WITH NO
SIGNIFICANT WEATHER AND/OR OBSTRUCTIONS TO VISIBILITY.

...SOUTH CENTRAL NEBRASKA...

CITY           SKY/WX    TMP DP  RH WIND       PRES   REMARKS
GRAND ISLAND   CLOUDY    77  62  59 SE5       29.84S
HASTINGS       MOSUNNY   75  64  68 SW6       29.85S
KEARNEY        SUNNY     79  59  50 CALM      29.85F
ORD            SUNNY     80  56  43 SW8       29.82S
YORK           SUNNY     77  64  65 SW7       29.84S
AURORA         CLOUDY    76  64  67 S6        29.84S
LEXINGTON      SUNNY     77  59  53 N5        29.85S
HOLDREGE       SUNNY     77  58  52 CALM      29.85S
HEBRON         MOSUNNY   78  68  71 SW5       29.83F

...NEBRASKA PANHANDLE...

CITY           SKY/WX    TMP DP  RH WIND       PRES   REMARKS
CHADRON        MOSUNNY   68  41  37 NW17G24   29.90R
ALLIANCE       CLOUDY    69  38  32 SW18      29.91R
SCOTTSBLUFF    CLOUDY    70  37  29 SW16      29.90S
SIDNEY         CLOUDY    60  49  66 NE10      29.98R

...WESTERN AND NORTH CENTRAL NEBRASKA...

CITY           SKY/WX    TMP DP  RH WIND       PRES   REMARKS
VALENTINE      PTSUNNY   65  48  54 NW8       29.85F
AINSWORTH      MOSUNNY   78  40  25 W26G33    29.84R
ONEILL         SUNNY     81  57  44 W6        29.81S
BROKEN BOW     MOSUNNY   79  57  46 W10       29.84F
IMPERIAL       CLOUDY    75  51  43 S7        29.87F
NORTH PLATTE   MOSUNNY   74  46  36 N14       29.87S
MCCOOK         SUNNY     80  52  37 CALM      29.85F

...EASTERN NEBRASKA...

CITY           SKY/WX    TMP DP  RH WIND       PRES   REMARKS
NORFOLK        MOSUNNY   81  58  45 SW5       29.80S
SO SIOUX CITY  CLOUDY    80  63  55 SW9       29.78F
TEKAMAH        PTSUNNY   80  63  55 S13       29.80F
COLUMBUS       SUNNY     79  61  53 S7        29.82F
ALBION         MOSUNNY   80  56  44 NW5       29.82F
OMAHA EPPLEY   CLOUDY    78  65  63 SW13      29.82F
OFFUTT AFB     CLOUDY    76  67  74 SW7       29.83S
MILLARD        CLOUDY    78  67  68 S7        29.83F
LINCOLN        CLOUDY    75  67  76 S6        29.83F
NEBRASKA CITY  CLOUDY    76  67  73 SW13      29.84F
BEATRICE       MOSUNNY   76  68  77 S7        29.84S
FALLS CITY     CLOUDY    79  67  66 S9        29.83F

...NORTHERN KANSAS...

CITY           SKY/WX    TMP DP  RH WIND       PRES   REMARKS
GOODLAND       SUNNY     79  44  28 MISG      29.88F
HILL CITY      CLOUDY    77  62  59 CALM      29.86S
NORTON         CLEAR     75  55  50 E5        29.85F
PHILLIPSBURG   CLOUDY    75  63  64 CALM      29.85S
SMITH CENTER   MOSUNNY   73  64  73 NW6       29.84F
BELOIT         MOSUNNY   79  68  69 N5        29.80F
HAYS           PTSUNNY   72  64  78 NW6       29.84R
RUSSELL        SUNNY     79  69  71 N9        29.81S
CONCORDIA      PTSUNNY   78  68  71 VRB5      29.82S
SALINA         CLOUDY    87  73  62 S9        29.77F HX  94
TOPEKA         MOSUNNY   81  67  62 S14G23    29.83F



USA.gov is the U.S. government's official web portal to all federal, state and local government web resources and services.